Time,TemperatureF,DewpointF,PressureIn,WindDirection,WindDirectionDegrees,WindSpeedMPH,WindSpeedGustMPH,Humidity,HourlyPrecipIn,Conditions,Clouds,dailyrainin,SoftwareType,DateUTC
2015-05-06 00:12:00,55.6,53.0,30.07,SE,133,0.0,-999.0,89,-99.99,,,0.00,weatherlink.com 1.10,2015-05-06 05:12:00,
2015-05-06 00:27:00,55.6,53.0,30.06,East,86,0.0,-999.0,89,-99.99,,,0.00,weatherlink.com 1.10,2015-05-06 05:27:00,
2015-05-06 00:42:00,55.4,52.0,30.06,East,86,0.0,-999.0,89,-99.99,,,0.00,weatherlink.com 1.10,2015-05-06 05:42:00,
2015-05-06 00:57:00,55.3,53.0,30.05,East,89,3.0,-999.0,90,-99.99,,,0.00,weatherlink.com 1.10,2015-05-06 05:57:00,
2015-05-06 01:12:00,55.3,53.0,30.05,East,91,0.0,-999.0,90,-99.99,,,0.00,weatherlink.com 1.10,2015-05-06 06:12:00,
2015-05-06 01:27:00,55.3,53.0,30.05,East,93,0.0,-999.0,91,-99.99,,,0.00,weatherlink.com 1.10,2015-05-06 06:27:00,
2015-05-06 01:42:00,55.3,53.0,30.04,East,92,2.0,-999.0,91,-99.99,,,0.00,weatherlink.com 1.10,2015-05-06 06:42:00,
2015-05-06 01:57:00,55.3,53.0,30.04,ESE,105,4.0,-999.0,91,-99.99,,,0.00,weatherlink.com 1.10,2015-05-06 06:57:00,
2015-05-06 02:12:00,55.3,53.0,30.04,East,82,3.0,-999.0,91,-99.99,,,0.00,weatherlink.com 1.10,2015-05-06 07:12:00,
2015-05-06 02:27:00,55.3,53.0,30.04,East,101,1.0,-999.0,91,-99.99,,,0.00,weatherlink.com 1.10,2015-05-06 07:27:00,
2015-05-06 02:42:00,55.3,53.0,30.04,SE,124,0.0,-999.0,92,-99.99,,,0.00,weatherlink.com 1.10,2015-05-06 07:42:00,
2015-05-06 02:57:00,55.1,53.0,30.03,East,84,0.0,-999.0,92,-99.99,,,0.00,weatherlink.com 1.10,2015-05-06 07:57:00,
2015-05-06 03:12:00,55.3,53.0,30.02,ENE,70,1.0,-999.0,92,-99.99,,,0.00,weatherlink.com 1.10,2015-05-06 08:12:00,
2015-05-06 03:27:00,55.3,53.0,30.02,East,95,4.0,-999.0,92,-99.99,,,0.00,weatherlink.com 1.10,2015-05-06 08:27:00,
2015-05-06 03:42:00,55.3,53.0,30.01,ENE,64,0.0,-999.0,92,-99.99,,,0.00,weatherlink.com 1.10,2015-05-06 08:42:00,
2015-05-06 03:57:00,55.3,53.0,30.01,East,84,2.0,-999.0,93,-99.99,,,0.00,weatherlink.com 1.10,2015-05-06 08:57:00,
2015-05-06 04:12:00,55.3,53.0,30.01,East,95,0.0,-999.0,93,-99.99,,,0.00,weatherlink.com 1.10,2015-05-06 09:12:00,
2015-05-06 04:27:00,55.3,53.0,30.01,SE,140,0.0,-999.0,93,-99.99,,,0.00,weatherlink.com 1.10,2015-05-06 09:27:00,
2015-05-06 04:42:00,55.3,53.0,30.00,East,84,0.0,-999.0,93,-99.99,,,0.00,weatherlink.com 1.10,2015-05-06 09:42:00,
2015-05-06 04:57:00,55.3,53.0,30.00,ENE,72,0.0,-999.0,93,-99.99,,,0.00,weatherlink.com 1.10,2015-05-06 09:57:00,
2015-05-06 05:12:00,55.3,54.0,30.00,East,93,2.0,-999.0,94,-99.99,,,0.00,weatherlink.com 1.10,2015-05-06 10:12:00,
2015-05-06 05:27:00,55.3,54.0,29.99,East,82,0.0,-999.0,94,-99.99,,,0.00,weatherlink.com 1.10,2015-05-06 10:27:00,
2015-05-06 05:42:00,55.3,54.0,30.00,East,95,2.0,-999.0,95,-99.99,,,0.00,weatherlink.com 1.10,2015-05-06 10:42:00,
2015-05-06 05:57:00,55.3,54.0,30.00,East,90,0.0,-999.0,95,-99.99,,,0.00,weatherlink.com 1.10,2015-05-06 10:57:00,
2015-05-06 06:12:00,55.3,54.0,30.00,East,93,0.0,-999.0,95,-99.99,,,0.00,weatherlink.com 1.10,2015-05-06 11:12:00,
2015-05-06 06:27:00,55.4,54.0,30.00,East,90,0.0,-999.0,95,-99.99,,,0.00,weatherlink.com 1.10,2015-05-06 11:27:00,
2015-05-06 06:42:00,55.4,54.0,30.01,East,82,5.0,-999.0,96,-99.99,,,0.00,weatherlink.com 1.10,2015-05-06 11:42:00,
2015-05-06 06:57:00,55.6,55.0,30.01,ESE,114,2.0,-999.0,96,-99.99,,,0.00,weatherlink.com 1.10,2015-05-06 11:57:00,